Regional Weather Roundup
Issued by NWS Cleveland, OH

Home | Current Version | Previous Version | Text Only | Print | Product List | Glossary Off
Versions: 1 2 3 4 5 6 7 8 9 10 11 12 13 14 15 16 17 18 19 20 21 22 23 24 25 26 27 28 29 30 31 32 33 34 35 36 37 38 39 40 41 42 43 44 45 46 47 48 49 50

000
ASUS41 KCLE 280910
RWRCLE
OHIO REGIONAL WEATHER ROUNDUP
NATIONAL WEATHER SERVICE CLEVELAND, OH
400 AM EST WED JAN 28 2015

NOTE: "FAIR" INDICATES FEW OR NO CLOUDS BELOW 12,000 FEET WITH NO
SIGNIFICANT WEATHER AND/OR OBSTRUCTIONS TO VISIBILITY.

OHZ001>008-015>018-024>027-034-035-043-044-281000-
   NORTHWEST OHIO

CITY           SKY/WX    TMP DP  RH WIND       PRES   REMARKS
DEFIANCE       PTCLDY     5   0  79 CALM      30.30R
FINDLAY        PTCLDY     4   1  88 SW3       30.26R
TOLEDO EXPRESS PTCLDY     6   3  87 CALM      30.27R
TOLEDO EXEC    PTCLDY    12   5  73 W3        30.28R
LIMA           PTCLDY     4  -1  80 S3        30.26R HAZE
$$

OHZ009>014-019>023-028>033-038-089-281000-
   NORTHEAST OHIO

CITY           SKY/WX    TMP DP  RH WIND       PRES   REMARKS
CLE-HOPKINS    PTCLDY    10   8  92 W3        30.27R
CLE-LAKEFRONT  PTCLDY    10   6  84 SW3       30.25R
CUY CO. ARPT   NOT AVBL
LORAIN-ELYRIA  PTCLDY     3   2  95 W5        30.25R WCI  -6
ASHTABULA      PTCLDY    -4  -8  83 CALM      30.21R
AKRON-CANTON   PTCLDY    10   6  84 W6        30.20R FOG     WCI   0
WOOSTER        FOG       -3  -7  82 CALM      30.22R VSB 1/4
MANSFIELD      MOCLDY     9   7  92 NW6       30.21R WCI  -1
YOUNGSTOWN     MOCLDY     2  -2  83 W3        30.19R
$$

OHZ042-051>053-060>062-070>072-077>081-281000-
  SOUTHWEST OHIO

CITY           SKY/WX    TMP DP  RH WIND       PRES   REMARKS
CINC-COVINGTON CLEAR     15  11  83 CALM      30.28R FOG
CINC-LUNKEN    CLEAR     13  11  92 CALM      30.33R FOG
HAMILTON       PTCLDY    12   9  87 CALM      30.32R
DAYTON         CLEAR     11   6  81 NW3       30.27R
WRIGHT-PAT AFB CLEAR      6   2  84 CALM      30.28R FOG
DAYTON GENERAL PTCLDY    13   9  84 CALM      30.27R FOG
WILMINGTON     PTCLDY     8   4  83 CALM      30.26R FOG
$$

OHZ036-037-039>041-045>050-054>059-063>069-073>076-082>088-281000-
  CENTRAL AND SOUTHEAST OHIO

CITY           SKY/WX    TMP DP  RH WIND       PRES   REMARKS
COLUMBUS       PTCLDY     8   4  83 CALM      30.26S FOG
OSU AIRPORT    PTCLDY     6   4  91 CALM      30.26R FOG
BOLTON FIELD   PTCLDY     4   1  88 MISG      30.26R
RICKENBACK AFB PTCLDY     7   4  89 CALM      30.27R
NEWARK         PTCLDY     3  -2  79 CALM      30.25S
MARION         PTCLDY    -3  -8  79 CALM      30.25R
LANCASTER      PTCLDY     2  -3  80 CALM      30.26R
ZANESVILLE     CLOUDY    14   9  80 SW3       30.25R
NEW PHILLY     CLOUDY    12   8  84 CALM      30.25R
$$


USA.gov is the U.S. government's official web portal to all federal, state and local government web resources and services.